Theta_e
323 323 323 324 326 325 322 324 323 323 326 323 321 322 324 331 324 315 335 351 331 329 345 341 337 340 333 328 326 325 327 329 330 333 335 338 339 340 342 342 342 344 344 345 346 346 346 347 346 347 347 347 347 348 348 349 349 350 350 351 351 352 353 353 352 352 353 353 354 354 355 355 355 354 353 352 349 347 344 341 340 340 340 341 342 342 342
322 323 324 323 323 324 323 324 324 323 325 323 322 324 324 326 325 322 333 343 335 331 336 335 335 333 327 325 326 326 327 327 330 334 336 338 340 341 342 342 342 343 343 345 345 345 346 347 347 347 347 347 348 348 348 350 350 351 351 352 352 352 353 352 352 354 354 354 354 355 355 355 356 355 355 354 352 349 345 341 338 338 341 342 342 342 342
323 323 324 323 322 324 322 323 325 323 324 325 322 323 325 325 325 325 330 335 334 332 335 336 328 324 327 334 333 330 331 330 332 337 338 339 342 342 341 342 342 343 344 345 345 345 346 346 347 347 347 348 348 348 349 349 350 351 352 352 353 352 352 352 353 355 355 355 355 355 355 356 356 356 356 355 354 351 347 342 337 337 340 342 343 342 342
324 322 323 323 321 322 320 320 324 323 322 323 323 323 325 324 323 326 326 326 330 333 334 335 330 328 338 348 339 330 333 335 333 336 339 341 342 342 343 343 342 343 343 344 345 345 345 346 346 347 347 348 348 348 349 349 350 351 352 353 353 352 352 353 354 355 356 356 356 355 355 357 357 357 357 356 355 353 349 342 337 337 339 341 343 343 342
325 322 322 323 322 320 319 319 323 324 323 324 323 325 327 326 325 325 322 322 328 331 329 330 332 334 339 343 335 330 335 338 337 336 338 341 343 343 343 342 342 343 343 343 344 345 345 346 346 346 347 347 348 348 348 348 350 352 352 353 353 353 353 354 355 356 356 357 357 356 356 357 357 357 357 356 355 352 349 344 339 338 338 340 342 343 343
324 321 321 324 322 319 319 322 325 325 325 325 324 324 325 324 324 325 326 327 327 327 329 330 329 333 337 340 341 341 341 337 337 340 339 339 342 343 343 343 343 342 343 344 344 344 345 345 345 346 347 347 347 347 348 349 351 351 353 353 353 354 354 354 355 356 357 357 357 356 356 357 358 358 357 356 355 352 350 347 343 338 337 338 340 341 342
323 322 323 326 325 323 326 331 331 326 324 325 325 329 332 332 332 331 329 330 333 334 332 328 330 338 343 345 348 350 347 342 341 342 341 341 341 340 341 343 343 343 343 343 344 344 345 345 345 346 347 348 348 348 349 350 350 350 351 352 352 354 354 355 355 356 357 357 357 357 357 358 358 358 357 357 356 353 352 349 344 339 337 338 338 339 341
324 325 326 327 329 333 337 338 332 326 328 329 327 333 342 348 350 343 330 335 351 351 337 330 335 344 346 347 349 350 351 350 347 344 343 344 344 343 342 342 341 342 343 343 344 344 345 346 346 346 347 347 347 349 349 350 350 350 351 352 352 353 354 355 355 355 356 357 357 357 358 359 359 358 357 357 356 355 354 350 347 345 342 339 338 339 340
325 326 326 326 328 329 331 334 332 329 330 330 329 336 344 353 352 348 343 349 357 351 339 335 341 344 344 349 352 349 350 353 350 347 344 343 344 345 345 344 343 342 343 343 344 344 344 345 345 345 346 346 346 348 349 349 350 350 351 352 352 352 353 354 355 356 356 357 357 358 358 359 359 358 358 357 357 356 355 353 351 347 344 341 340 340 340
325 325 326 326 326 327 330 336 337 335 333 334 332 340 350 357 353 347 352 354 349 344 342 339 339 343 351 361 358 349 349 352 351 350 346 342 341 341 342 344 345 344 344 343 344 344 344 344 345 345 345 346 345 347 349 349 350 350 350 351 351 351 352 352 354 355 356 357 357 358 358 358 358 358 358 358 357 357 356 355 351 346 344 344 342 341 341
325 325 326 326 326 332 338 337 337 336 333 336 335 333 344 358 356 346 351 355 348 343 340 336 340 347 359 370 364 352 349 351 350 348 346 342 341 339 337 339 340 341 344 346 347 348 346 345 346 346 346 346 346 346 347 348 348 349 349 348 349 350 350 351 353 355 356 357 357 357 358 358 358 359 359 358 358 358 357 356 353 349 347 347 344 342 342
323 324 327 327 327 335 339 335 335 335 333 336 332 324 335 355 355 345 349 357 353 344 336 339 353 361 359 363 360 351 349 352 350 347 345 342 342 342 340 338 337 338 339 341 346 350 348 347 347 346 346 346 347 347 348 349 349 349 347 345 346 348 350 351 353 355 355 356 357 357 358 357 358 358 358 358 359 358 358 357 356 354 352 350 348 346 345
327 330 333 332 332 338 337 333 333 334 335 334 328 326 339 353 352 346 347 349 349 344 340 346 358 358 352 352 352 348 349 352 351 349 348 344 342 341 338 337 338 337 336 336 340 343 346 348 349 348 349 349 348 348 349 350 350 349 346 344 344 346 350 352 353 354 355 356 357 357 358 358 359 359 359 359 359 358 358 358 357 356 355 354 352 350 349
335 338 340 337 335 336 334 332 333 336 335 331 332 340 348 350 348 348 347 345 346 347 345 347 350 348 347 349 349 348 349 349 348 350 349 346 345 344 340 338 337 336 336 336 336 337 339 341 343 345 348 350 350 351 351 351 351 349 349 348 347 349 352 354 354 355 355 356 357 358 358 359 360 360 360 360 359 359 358 358 358 358 357 356 355 354 353
339 341 343 342 338 335 333 333 335 337 338 338 341 346 349 347 346 346 345 345 346 346 345 345 345 345 346 347 347 348 349 347 346 345 341 341 343 344 344 343 340 337 336 335 335 337 336 337 338 340 342 346 350 354 354 351 350 350 351 351 351 352 353 354 355 356 356 357 357 357 358 359 360 360 360 361 361 360 360 359 359 359 358 358 357 356 355
342 345 345 342 338 334 333 334 335 333 332 336 342 346 346 346 345 344 344 344 344 345 345 343 343 343 343 344 346 347 348 348 348 347 344 343 342 341 341 341 341 341 341 339 339 340 340 341 342 342 343 345 348 351 350 350 352 354 354 353 353 354 355 355 356 356 356 357 358 358 359 359 359 360 360 361 361 361 361 361 360 359 359 359 358 357 357
341 344 342 338 335 333 332 333 333 330 329 333 339 342 342 343 343 343 343 343 343 344 344 342 342 343 342 343 344 344 345 347 349 350 351 351 351 350 349 349 349 349 348 347 346 345 345 346 347 348 350 350 352 352 352 353 356 356 356 358 358 357 356 356 356 356 357 357 357 358 358 359 360 360 360 361 362 362 361 362 361 361 360 359 359 358 357
337 337 336 335 334 333 332 331 331 329 328 330 334 335 335 337 339 341 342 342 342 341 341 341 341 341 342 342 343 343 344 345 346 348 350 351 352 352 353 354 355 355 355 354 354 353 352 351 352 354 353 353 354 357 358 358 359 359 360 362 362 361 360 360 359 358 358 358 359 359 358 359 360 360 360 361 361 361 362 362 361 361 360 359 359 358 358
337 336 335 335 335 333 331 330 329 328 328 327 328 329 330 331 335 337 339 341 341 339 339 340 340 340 341 342 341 342 343 343 344 346 348 349 351 352 352 353 354 355 356 357 357 358 358 357 356 355 354 352 353 356 357 360 361 362 362 363 362 363 362 362 361 362 361 361 360 359 359 359 360 361 362 362 362 362 362 362 361 361 360 360 360 359 359
337 337 335 334 333 331 331 329 328 327 327 326 326 327 328 330 333 336 338 340 341 340 340 341 341 341 342 341 342 342 343 343 344 345 346 347 349 350 352 353 353 353 354 354 354 356 356 357 357 357 357 357 357 358 359 361 362 363 364 363 364 364 364 364 363 363 362 362 361 361 360 360 360 361 362 362 362 362 362 362 361 361 361 360 360 360 360
335 335 334 334 334 333 330 329 328 326 326 326 325 326 327 329 331 334 337 339 340 340 341 341 342 342 342 341 342 342 342 343 344 345 347 348 348 350 351 352 352 352 352 352 352 352 352 352 353 352 353 353 354 356 356 357 360 362 364 364 364 364 364 364 365 364 363 364 362 362 361 361 361 362 363 363 363 362 362 362 361 360 360 361 360 360 360
334 334 334 335 338 337 331 328 328 327 325 325 325 325 325 326 327 329 331 333 335 337 338 341 341 341 341 341 341 341 342 343 344 345 346 347 347 348 349 349 350 350 350 351 352 352 352 352 352 352 352 352 352 353 353 354 356 358 360 362 363 364 365 366 366 366 365 364 363 362 362 362 362 362 362 363 363 362 362 362 360 358 359 359 360 361 361
333 333 333 332 334 335 330 327 327 327 325 325 325 324 324 324 324 327 328 329 330 332 335 338 340 340 340 340 341 342 342 342 343 344 344 345 345 346 346 346 347 348 348 349 350 351 351 352 352 353 354 354 353 352 352 353 353 354 355 355 356 359 363 365 366 366 365 364 365 365 363 362 363 364 364 364 363 363 364 362 360 358 358 357 358 359 358
331 332 332 331 331 331 328 326 326 326 325 325 324 324 323 322 323 325 326 327 328 329 330 333 337 340 341 341 342 342 342 343 344 344 344 345 345 345 345 345 346 346 347 347 348 348 349 349 349 350 349 348 348 348 348 349 350 349 349 346 347 352 358 361 363 364 360 357 358 361 364 364 363 363 363 362 359 358 360 361 359 357 355 354 353 352 351
331 332 332 331 330 329 327 326 326 325 324 324 323 323 322 322 322 324 325 326 327 329 330 331 333 337 340 341 342 343 343 343 343 344 344 345 345 345 345 345 345 346 346 346 347 347 348 346 343 340 338 338 340 343 345 347 348 348 347 345 343 344 348 350 352 353 350 346 345 347 352 358 362 363 363 361 357 355 356 357 356 354 351 349 348 346 345
331 332 331 329 328 327 326 326 326 325 324 324 324 323 322 321 322 323 324 326 326 328 330 332 333 336 337 338 339 341 341 342 343 344 344 344 343 343 342 342 343 345 346 346 347 347 347 344 339 333 330 334 339 343 344 343 344 346 346 346 345 345 344 344 344 344 344 345 344 343 343 347 351 355 357 357 356 355 354 352 350 348 346 344 344 342 341
330 331 330 329 329 328 327 327 327 326 325 325 325 325 324 323 322 322 324 325 326 326 328 329 331 334 335 335 336 337 338 339 341 341 340 340 339 338 338 338 340 342 343 344 345 346 346 346 344 341 339 341 343 343 342 341 341 341 341 341 343 344 344 344 344 344 344 345 347 348 346 345 344 345 349 352 351 350 350 348 344 341 339 339 340 340 340
330 330 330 329 329 327 326 326 325 325 325 325 325 325 325 325 324 323 323 324 325 325 325 326 327 329 331 332 334 334 335 335 336 337 336 335 334 335 336 337 337 337 338 339 341 343 344 345 345 346 346 346 345 343 341 341 340 339 338 337 337 337 337 339 342 345 346 347 347 345 341 338 337 337 340 341 340 338 338 336 333 332 335 337 338 339 339
328 329 328 327 325 324 324 324 324 323 323 323 323 323 323 323 323 323 323 324 324 324 324 324 324 325 325 326 327 327 327 328 328 329 332 335 335 334 335 337 337 335 335 337 338 340 341 343 344 345 345 345 345 345 343 341 339 338 338 337 334 333 333 332 335 339 342 343 342 337 331 329 329 330 330 330 330 330 332 333 334 335 338 339 337 336 337
325 326 327 325 324 325 325 325 325 324 324 323 323 322 322 322 321 321 321 322 323 324 324 324 324 323 323 323 322 322 322 323 322 321 323 328 329 327 328 334 337 337 336 337 338 340 341 341 341 342 343 343 343 343 344 344 342 341 341 339 336 334 332 331 332 335 336 336 335 333 331 330 331 331 331 332 334 334 334 336 339 339 340 339 338 337 338
324 324 325 324 324 325 326 325 326 325 325 325 325 325 324 324 323 322 322 322 322 323 324 324 324 323 323 322 321 321 321 322 322 322 321 321 322 321 322 328 333 336 336 336 336 337 338 338 338 339 340 342 342 342 344 344 344 343 343 343 342 340 338 337 338 337 335 336 337 337 336 336 335 335 334 335 337 337 336 337 339 339 339 339 340 339 340
323 323 324 324 324 325 325 325 325 325 325 325 325 325 326 326 325 324 323 322 323 324 324 324 324 324 323 322 322 322 323 323 323 324 323 321 320 320 319 320 324 331 335 336 335 335 335 336 337 337 337 339 340 341 342 342 341 340 340 340 341 341 340 340 340 338 337 339 341 341 341 339 338 337 337 337 338 339 338 338 339 339 339 339 339 339 340
323 323 323 324 323 324 324 325 325 325 325 325 325 325 325 326 325 325 325 324 324 325 325 325 324 323 322 321 321 322 325 325 325 324 324 323 322 321 320 318 319 322 325 327 328 330 330 331 334 336 337 336 336 337 339 340 340 340 338 338 338 340 340 339 340 340 340 341 342 342 341 340 338 338 339 338 338 338 337 337 338 338 338 338 337 337 337
321 322 323 323 322 322 323 323 324 325 325 324 325 325 325 325 325 326 326 326 326 326 327 326 325 323 321 320 321 321 322 323 324 324 324 324 324 324 323 322 321 320 320 320 320 321 323 324 327 331 335 336 336 335 336 337 339 340 340 339 339 340 340 340 340 339 339 339 339 338 337 335 335 335 336 336 336 336 336 337 337 337 337 336 335 335 336
321 320 321 322 323 322 322 323 323 324 324 323 324 325 325 325 326 326 326 326 326 326 326 327 326 325 324 324 325 325 324 324 324 325 325 326 326 326 325 324 322 321 320 320 319 319 320 320 321 323 328 333 336 336 335 335 336 338 339 340 341 340 340 340 341 340 339 337 336 334 333 333 334 334 335 335 335 334 334 335 336 336 336 335 334 333 335
322 322 323 324 324 324 324 324 324 324 324 324 324 325 325 325 326 326 326 326 326 326 326 327 327 327 326 326 327 328 328 328 328 328 327 327 327 326 326 326 325 324 322 321 321 321 322 323 323 322 321 323 327 331 334 335 336 335 334 335 337 339 340 339 339 339 338 336 334 332 332 332 333 333 332 332 332 332 332 333 333 334 335 335 333 332 334
323 323 323 323 324 324 324 325 325 325 325 325 325 325 325 326 326 326 326 326 326 326 326 327 327 327 327 328 328 328 328 328 328 327 327 327 326 326 327 326 326 327 326 326 326 326 327 327 327 326 324 322 321 323 326 329 330 332 332 331 330 333 336 338 338 338 337 334 333 333 333 333 332 332 331 330 330 330 331 331 331 332 333 334 333 332 334
322 322 322 322 323 323 323 324 324 324 324 325 325 325 325 325 325 325 326 326 326 326 326 327 327 327 327 327 327 327 327 327 327 327 327 327 326 324 322 321 320 321 323 325 327 328 329 328 328 327 327 326 324 321 320 319 320 325 331 332 330 329 330 331 334 336 337 335 332 330 330 332 334 333 332 332 332 332 333 332 332 331 332 333 333 332 333
322 322 322 322 322 322 322 322 322 323 323 323 323 323 324 324 324 325 325 325 325 325 326 326 326 326 325 325 325 325 325 325 326 326 326 325 323 320 318 317 316 317 318 320 324 326 328 328 328 327 326 327 326 324 323 322 321 323 326 328 327 325 325 325 326 328 332 335 334 330 327 329 333 335 334 333 334 334 334 334 332 330 331 332 332 332 333
321 321 321 321 320 320 320 320 321 322 323 323 323 323 323 323 323 324 324 325 324 324 324 324 324 323 322 322 323 323 323 324 324 324 324 322 321 319 318 317 317 317 317 319 322 325 326 327 327 327 327 327 328 328 328 328 329 328 328 327 326 326 327 328 327 326 328 331 334 333 330 330 332 334 335 335 335 334 334 334 332 330 329 329 330 331 332
318 318 319 319 318 318 318 318 319 320 322 323 323 323 323 322 322 323 323 324 324 324 324 322 321 319 319 319 319 320 321 322 322 322 321 320 319 319 319 319 319 318 317 318 321 323 324 324 325 326 327 328 329 329 329 329 330 330 330 330 330 330 331 332 332 332 331 331 333 334 334 333 333 334 335 335 335 334 334 334 332 330 329 328 329 329 329
317 317 317 317 317 317 318 318 318 319 320 320 321 321 321 321 321 321 321 322 322 323 322 321 320 319 318 318 318 318 318 319 319 319 319 319 318 318 319 320 320 319 318 318 320 321 321 320 321 323 326 327 327 328 328 329 330 330 330 330 330 331 332 332 332 332 333 332 332 333 334 334 333 334 335 335 335 334 334 334 333 330 328 327 327 328 328
317 317 316 316 317 317 317 317 317 318 319 319 319 319 319 320 320 319 319 319 320 320 320 320 319 319 318 317 316 316 316 316 317 317 317 317 317 318 318 319 319 319 318 318 318 319 319 318 319 321 323 325 325 326 326 327 327 328 329 329 329 329 330 330 330 330 330 331 331 332 332 332 332 332 333 333 334 334 333 333 332 330 328 327 327 327 327
316 316 316 316 316 316 317 317 317 316 316 316 316 316 317 317 317 316 317 317 317 317 317 317 317 317 316 316 315 315 314 314 314 315 315 315 317 318 318 318 318 318 319 318 318 317 318 318 318 319 321 323 324 325 324 325 325 326 326 327 327 327 328 328 328 329 329 329 329 330 330 330 330 331 331 331 332 333 333 332 331 330 328 328 327 327 327
316 315 315 316 316 316 316 316 316 316 316 316 316 315 315 315 315 315 315 315 315 315 315 315 315 315 315 314 314 314 314 314 314 314 314 315 317 318 319 318 318 318 319 319 319 318 318 318 318 318 319 321 322 323 324 324 325 325 325 325 325 326 326 327 327 327 328 328 328 329 328 328 329 329 330 331 331 331 331 331 330 329 328 328 328 327 326
315 315 316 316 315 315 316 316 316 316 316 315 315 315 315 315 315 315 315 315 315 314 314 314 314 314 314 314 314 314 314 314 314 314 314 315 317 318 318 318 318 318 318 318 318 319 318 318 318 318 318 319 320 321 322 324 324 324 324 324 324 325 325 325 326 326 327 327 327 327 327 326 326 327 328 329 329 328 328 329 330 329 328 328 327 325 324
315 315 315 315 315 315 315 315 315 315 315 314 314 314 314 314 315 315 315 314 314 314 314 314 314 314 314 314 314 313 313 314 314 314 314 314 315 315 316 316 317 317 317 317 318 318 318 318 318 318 318 318 318 318 320 322 323 323 323 322 323 323 324 324 325 326 326 326 326 326 325 325 326 326 326 327 327 327 327 328 328 328 328 327 325 323 323
314 314 315 315 315 315 315 315 315 315 314 314 314 314 314 314 314 314 314 314 314 314 314 313 313 313 313 313 313 313 313 313 313 313 313 313 313 314 314 315 315 315 315 316 316 316 317 317 317 318 318 318 318 318 318 319 320 320 320 320 320 321 322 322 324 324 324 324 325 324 324 324 325 325 325 325 325 325 325 326 326 326 326 325 323 321 321
313 313 313 313 313 313 313 313 313 313 313 313 313 313 313 313 313 313 313 313 313 313 312 312 312 312 312 312 311 311 311 311 311 311 311 311 312 312 312 313 313 313 313 314 314 315 315 316 316 317 318 318 318 318 318 318 317 317 317 317 317 318 319 320 322 323 322 322 323 324 324 324 324 324 323 323 323 323 323 323 324 324 323 322 320 319 320
312 312 312 312 311 311 310 311 311 311 312 312 313 313 313 313 313 313 312 312 312 311 311 311 311 310 310 310 310 310 310 309 309 309 309 308 309 309 309 310 310 310 310 310 311 312 313 314 314 315 316 317 317 317 317 317 318 317 317 316 316 316 316 317 318 318 318 319 320 322 323 324 324 323 323 323 322 322 322 322 322 322 321 321 320 319 319
310 310 310 309 309 309 309 309 309 310 310 311 311 312 313 313 313 312 312 311 311 310 310 309 309 308 308 308 309 308 308 308 308 307 307 306 306 306 306 306 306 306 306 306 306 307 308 309 311 312 313 314 315 316 316 316 316 317 317 317 316 316 315 315 315 316 316 316 316 318 320 321 322 322 322 322 322 322 322 322 321 321 321 321 321 321 320
308 308 308 308 308 308 308 308 308 308 308 309 309 310 310 311 311 311 311 311 310 309 309 308 307 307 307 307 307 307 307 307 307 306 306 305 305 305 305 305 304 304 304 304 304 304 304 305 306 308 310 311 312 313 314 314 315 315 315 315 315 315 315 315 315 315 314 315 315 315 316 317 318 319 320 320 321 321 321 320 320 319 319 319 320 321 320
Wind_Speed
13 13 15 13 12 13 14 15 15 14 14 15 18 17 11 12 11 12 9 10 11 9 8 8 9 9 10 12 11 10 14 21 25 27 29 29 31 33 36 39 39 40 44 47 48 50 52 54 55 55 55 55 55 55 55 55 55 55 55 55 55 54 54 54 54 54 52 50 49 47 46 44 43 42 41 40 39 39 40 40 40 39 40 40 41 42 42
15 15 15 13 13 12 11 15 17 16 17 18 18 17 13 14 16 12 9 12 12 10 9 10 11 13 11 11 13 12 15 22 26 26 27 29 30 32 36 38 38 40 45 48 49 50 51 52 54 55 55 55 55 55 55 55 55 55 55 55 55 55 55 55 54 53 52 51 49 48 47 46 45 43 42 41 40 40 40 40 40 40 40 41 42 42 42
12 14 13 10 13 14 11 11 14 16 18 19 19 16 12 11 13 9 7 10 10 8 7 9 12 11 6 6 11 13 16 21 22 22 24 28 31 33 37 40 41 43 46 48 50 50 51 53 53 54 55 55 55 55 54 54 55 54 54 54 55 55 55 54 53 52 52 51 49 48 48 47 46 45 43 42 42 41 41 41 41 41 41 42 43 42 43
8 9 9 11 12 14 13 13 14 16 17 16 15 13 11 11 12 10 7 7 7 8 7 7 8 7 4 6 8 7 8 13 19 22 24 28 31 33 36 40 41 43 44 47 49 51 52 53 53 54 54 54 54 54 54 54 54 54 53 54 55 55 54 53 53 53 52 51 50 49 48 48 47 46 44 43 43 42 42 42 42 42 43 43 43 43 43
8 10 12 15 12 8 12 16 17 17 15 13 12 10 11 14 14 11 10 10 9 9 7 6 8 9 8 6 2 5 5 6 15 21 24 28 32 34 38 41 42 43 44 46 49 51 52 53 54 54 54 54 54 53 53 54 53 53 53 53 54 54 53 53 53 53 52 51 50 49 49 49 48 47 45 44 44 44 43 43 43 43 44 44 44 43 44
8 13 14 12 7 7 11 11 13 15 14 14 13 11 11 14 12 6 6 10 11 8 7 8 10 9 5 4 7 7 6 2 8 15 17 21 26 31 36 40 41 42 43 45 48 51 53 54 54 53 52 52 52 51 52 52 52 52 53 53 53 53 53 53 53 53 52 52 51 50 49 49 48 48 47 46 45 45 44 44 45 45 45 45 44 44 44
6 10 9 5 4 9 8 4 8 15 15 14 15 12 9 11 10 4 3 8 10 7 7 8 7 9 12 14 14 13 10 7 2 7 10 14 19 25 30 34 37 39 39 41 45 49 52 53 52 50 50 50 50 50 50 51 51 52 52 52 53 53 53 53 53 52 52 52 52 50 50 50 50 49 48 48 47 47 46 46 46 46 46 46 45 44 44
4 5 3 3 6 8 5 3 2 8 9 11 12 8 4 4 6 7 8 8 6 6 8 10 15 18 18 17 17 15 13 11 8 5 3 6 10 15 19 25 31 36 38 40 42 44 48 51 52 50 49 48 48 50 51 50 51 51 51 52 53 53 53 53 53 53 53 53 52 51 50 51 51 50 50 49 49 48 48 48 47 47 47 46 45 45 44
3 4 5 5 9 9 3 0 2 1 3 10 13 7 4 4 3 6 9 7 6 7 9 15 22 18 12 12 11 13 15 13 11 9 7 5 5 5 8 13 19 25 32 37 39 40 42 46 48 49 48 46 47 49 51 50 49 49 50 51 52 52 53 53 53 53 54 53 52 51 51 52 52 52 51 50 50 50 50 49 49 48 48 47 46 45 44
4 4 5 4 6 7 2 4 10 11 9 6 11 10 4 5 3 4 7 9 10 10 10 15 19 12 8 4 4 8 13 13 13 13 11 9 8 6 5 6 9 15 22 27 29 31 34 37 41 43 44 43 44 48 49 49 48 48 49 49 50 51 52 53 53 53 54 54 53 52 52 53 53 53 51 51 51 51 51 51 49 48 48 47 46 45 44
4 4 5 4 4 5 4 12 16 16 19 14 5 9 6 6 3 3 7 10 11 12 12 12 12 8 5 3 5 5 9 12 14 13 12 11 10 8 6 4 5 9 14 19 22 24 26 30 34 38 41 42 43 46 48 48 48 47 47 47 48 49 51 52 53 53 53 53 53 53 53 53 53 52 51 51 51 51 51 51 50 48 47 48 47 46 45
7 6 5 4 3 2 7 15 18 21 22 13 4 9 8 4 1 2 7 8 9 12 13 10 6 4 6 6 4 1 6 11 13 12 12 11 10 9 8 7 5 3 5 8 13 19 23 26 29 33 37 40 42 44 45 46 47 47 46 43 43 46 48 50 51 51 52 53 54 54 54 54 53 52 51 50 50 51 51 51 50 49 49 48 48 47 47
8 6 4 4 3 2 10 17 21 24 17 2 7 9 7 3 4 6 9 10 10 12 13 9 5 4 7 9 6 4 8 11 12 11 10 9 8 7 6 6 6 5 3 3 3 9 15 20 24 28 31 35 38 41 42 43 45 46 45 42 42 44 46 48 49 50 51 53 54 54 54 54 53 52 51 50 50 50 51 50 50 50 50 49 49 48 47
3 4 2 3 4 3 16 24 23 17 5 5 6 4 7 11 10 12 15 15 18 21 20 17 15 12 12 12 9 9 11 12 12 11 8 7 6 5 4 4 3 2 1 2 2 1 5 9 14 19 22 27 31 35 38 41 43 44 44 43 43 44 45 46 48 50 52 53 53 54 54 53 53 53 52 51 51 50 50 49 50 50 50 49 49 48 48
1 2 1 2 3 5 21 25 16 8 4 5 7 2 12 16 16 19 20 18 23 30 28 24 21 17 14 13 12 11 11 11 11 9 7 6 5 3 3 2 2 3 3 2 2 2 2 4 6 10 14 18 23 29 33 35 38 41 42 43 44 44 44 46 47 49 51 52 53 53 53 53 54 54 53 52 52 51 50 49 49 50 50 50 49 48 48
2 2 2 1 1 7 19 17 7 7 12 13 14 8 6 14 17 23 24 20 23 30 30 25 22 19 16 14 12 11 11 10 10 8 7 6 4 3 1 1 2 3 3 3 3 3 3 4 5 7 10 12 16 21 24 26 30 35 38 40 42 43 44 46 48 49 50 52 53 53 53 54 54 54 54 53 52 51 50 50 50 50 49 50 50 49 47
2 2 2 1 1 7 16 17 14 18 20 16 13 8 6 13 14 21 27 24 23 27 27 25 23 21 18 16 14 13 12 10 9 8 6 5 5 3 2 2 1 1 2 2 3 4 4 5 6 8 9 11 12 15 17 21 26 31 34 37 41 43 45 47 48 48 49 51 53 53 54 54 55 55 55 54 52 51 50 50 50 50 50 50 49 49 48
2 2 1 1 2 7 15 22 23 24 24 18 13 11 12 14 14 20 26 26 23 24 24 25 25 22 20 19 18 15 14 12 10 8 6 5 4 3 2 1 1 0 1 2 3 3 4 6 8 9 10 11 13 15 17 19 23 27 30 34 37 41 44 46 47 48 49 52 53 53 53 54 54 56 56 55 54 52 51 50 50 50 51 50 49 49 47
3 2 2 2 2 4 12 22 27 29 26 18 13 15 15 16 19 21 23 23 23 21 22 25 26 23 20 20 19 17 16 15 13 10 9 7 5 4 4 4 4 3 2 1 1 3 5 7 9 11 13 14 15 17 18 19 21 23 26 29 33 36 39 43 45 47 49 50 51 51 52 53 54 54 54 54 53 52 52 52 52 52 52 51 50 49 47
3 3 5 6 3 4 12 20 25 27 26 20 14 18 19 20 22 22 21 21 21 20 20 22 23 22 19 17 17 16 15 13 12 11 10 9 8 7 7 5 4 4 4 3 1 1 4 7 9 12 14 15 17 18 19 20 21 22 23 26 29 31 35 39 43 46 48 49 51 52 53 54 55 55 53 52 52 53 52 52 52 53 53 52 50 48 46
3 3 3 6 4 5 12 18 21 21 20 18 15 21 24 24 24 24 23 23 21 21 20 19 19 21 20 16 15 15 14 13 12 10 9 9 9 8 7 6 5 4 4 4 4 4 4 5 6 8 10 13 15 18 20 21 22 23 24 26 28 31 33 36 39 43 46 48 49 52 54 54 55 55 55 55 54 53 53 53 51 49 49 50 49 46 42
4 2 3 5 5 2 6 13 14 10 12 15 17 20 24 25 24 24 25 25 24 24 23 21 21 24 23 19 17 18 17 15 13 10 8 8 9 9 8 7 6 6 6 7 7 7 8 8 9 10 11 12 12 14 16 19 21 23 24 25 27 30 31 32 35 39 44 48 51 53 55 57 58 57 54 54 56 55 53 52 47 43 44 46 45 42 38
4 4 7 9 9 5 7 15 15 8 5 12 18 20 21 22 23 24 25 26 25 24 25 25 25 26 25 22 21 22 22 20 16 14 13 13 14 14 13 11 10 9 8 7 7 7 7 8 8 8 8 9 9 11 12 13 15 17 18 19 21 24 27 29 31 32 36 43 51 57 58 58 60 60 55 52 52 53 54 51 42 36 39 41 37 32 29
2 5 9 11 11 10 12 17 18 13 12 14 16 19 20 21 21 23 24 24 24 24 26 27 27 27 26 23 22 24 24 22 20 19 19 19 19 18 17 16 15 14 13 12 11 9 8 7 7 8 9 9 10 11 10 9 10 11 11 12 13 16 21 26 29 32 33 35 44 57 67 66 60 60 59 55 49 45 46 45 36 29 26 26 21 17 16
5 8 12 13 15 18 18 17 16 14 14 17 19 20 20 19 20 21 21 21 22 24 27 29 29 28 25 23 22 22 22 22 21 20 21 22 21 20 20 19 19 18 17 16 15 13 12 12 12 14 15 16 17 18 16 12 6 4 6 7 7 10 14 18 22 27 29 25 27 30 48 61 60 58 58 55 50 45 40 36 34 30 25 21 17 16 16
7 12 18 18 19 19 17 15 14 12 12 16 19 18 17 18 19 20 20 20 20 23 26 28 28 27 26 26 24 23 22 22 21 20 21 23 23 22 23 22 20 19 18 17 16 15 14 12 13 14 16 18 19 20 20 20 17 12 8 5 2 2 7 10 9 10 11 9 12 7 16 35 44 54 59 56 52 49 46 41 38 33 26 21 18 17 16
10 18 24 19 14 12 12 12 11 9 9 12 13 13 13 16 17 17 18 18 18 20 23 24 24 24 25 26 25 24 23 23 22 21 22 24 24 24 24 21 19 18 17 17 18 18 17 14 13 13 14 16 18 20 20 20 21 22 21 19 17 14 10 5 1 4 6 5 6 11 15 14 13 28 46 49 44 40 38 37 37 32 25 22 20 19 18
13 18 20 17 14 15 16 15 13 11 9 9 8 8 9 11 12 13 15 16 16 17 18 18 19 20 21 22 21 21 21 21 21 21 22 23 23 22 20 19 18 17 17 17 18 18 18 17 16 15 14 12 13 16 18 19 20 22 24 24 24 23 21 17 13 10 7 8 12 15 15 13 15 17 25 30 29 25 22 23 26 26 25 25 23 21 20
15 18 20 23 24 24 24 21 19 17 15 12 11 10 9 10 11 13 14 14 14 15 16 16 15 16 17 17 17 17 18 18 18 18 18 19 20 19 17 15 15 15 16 18 17 17 17 17 17 17 17 15 12 12 13 15 17 19 20 20 20 20 20 18 16 14 12 13 14 14 13 12 11 13 16 19 19 19 18 18 20 22 24 24 21 19 18
21 25 28 29 27 26 26 25 23 22 20 18 18 18 16 15 16 15 13 12 12 14 16 16 15 15 15 14 14 14 14 14 14 15 15 15 14 15 14 13 12 12 15 18 18 17 17 17 17 16 16 15 14 12 10 10 12 14 14 15 15 15 16 17 16 13 11 10 11 12 11 11 11 11 13 14 16 16 16 17 19 20 20 19 16 15 15
28 28 30 30 28 27 27 25 22 21 20 19 20 20 20 19 19 17 14 13 13 14 15 15 16 16 16 15 14 13 11 10 10 10 11 10 9 9 9 10 11 13 16 17 17 16 15 16 16 16 14 13 12 12 11 10 11 11 11 11 11 11 11 11 13 13 11 9 9 10 10 10 10 10 10 11 13 14 15 16 17 17 17 16 15 14 15
33 29 27 28 29 29 27 24 22 21 20 18 19 18 17 17 17 17 16 16 15 15 15 15 15 14 14 13 12 12 12 12 11 10 11 11 10 9 9 9 10 11 11 12 13 13 13 14 14 14 13 12 11 10 9 9 9 10 10 9 9 9 9 8 8 9 8 8 10 10 9 10 10 9 9 10 11 12 13 14 14 14 14 15 15 16 16
29 24 20 23 26 27 27 26 24 22 21 20 19 18 15 15 17 18 18 17 16 16 17 17 16 14 12 10 10 10 10 11 12 13 14 14 14 13 13 11 10 9 8 8 8 10 12 13 12 11 10 10 10 10 9 7 7 8 9 8 8 8 8 7 7 7 8 9 10 10 9 9 9 9 9 10 10 10 10 10 11 12 13 14 15 16 16
27 23 20 22 24 24 24 23 22 21 21 20 19 18 17 16 17 17 17 16 15 15 15 16 17 16 14 13 12 10 8 9 10 12 13 13 13 13 12 11 9 8 7 6 5 6 8 10 9 8 8 7 8 9 9 8 7 7 6 6 7 7 8 8 8 8 9 10 10 9 9 8 8 7 7 7 7 8 8 8 8 9 11 12 14 16 16
26 24 22 22 22 22 22 21 19 18 18 17 17 18 19 18 16 15 15 15 14 14 14 15 16 16 16 16 15 14 12 12 12 13 13 13 13 12 11 10 9 8 7 6 6 6 6 7 7 5 5 5 6 8 8 8 8 7 6 4 4 4 6 7 8 8 8 7 7 8 8 7 7 6 6 7 7 8 8 8 8 10 12 13 16 18 18
24 24 23 22 22 21 21 19 18 18 19 18 17 17 17 16 15 15 14 15 14 14 14 14 14 15 16 16 17 16 16 15 14 14 14 14 13 13 13 13 12 11 11 11 11 10 9 9 8 7 4 2 2 4 5 6 6 6 6 5 4 2 2 3 6 7 6 4 4 6 7 7 7 7 8 9 9 10 11 10 10 13 15 17 18 20 20
24 24 23 22 21 21 20 20 19 20 20 20 19 18 17 16 15 14 14 14 14 13 13 13 14 15 16 16 16 16 16 15 14 14 14 13 13 14 16 17 17 16 15 15 15 13 12 11 10 10 8 6 3 1 1 2 3 3 3 4 5 4 2 1 4 7 6 5 5 5 6 7 8 9 10 10 10 11 11 11 10 13 17 20 21 21 20
25 25 24 24 24 24 23 23 22 20 20 19 19 19 18 17 16 16 16 15 15 14 13 14 16 18 18 18 17 17 17 15 14 14 13 14 16 18 21 22 21 19 17 15 12 11 11 12 12 11 10 9 8 6 4 3 3 3 2 1 2 4 4 2 2 5 6 5 4 3 2 3 6 8 9 10 9 9 9 8 8 11 16 19 21 21 20
27 27 27 28 28 28 27 26 25 23 21 20 20 20 20 19 18 18 18 17 16 16 16 18 21 23 22 21 21 20 19 18 17 17 17 18 21 23 24 23 22 19 17 14 11 10 10 11 11 11 10 10 10 9 7 6 4 2 2 2 2 3 4 4 3 4 6 6 5 5 5 5 7 8 9 10 9 8 7 6 6 9 14 17 18 18 19
28 27 27 27 28 27 27 27 26 25 23 22 22 23 23 23 24 24 23 22 21 20 21 24 25 26 25 24 23 22 21 21 21 21 21 21 23 23 24 25 23 20 17 14 12 11 10 9 9 10 10 10 8 7 6 5 4 3 1 2 3 5 6 6 6 7 7 7 9 10 10 10 11 11 11 11 10 9 9 8 7 9 12 14 14 14 16
28 28 27 27 27 27 27 27 26 25 24 24 24 23 23 25 27 28 28 27 26 25 26 27 28 28 28 27 26 24 23 23 22 22 22 22 22 23 24 24 23 21 18 15 13 12 12 11 11 11 10 9 8 7 6 5 4 4 3 3 2 3 4 5 6 8 9 10 12 14 15 15 16 15 14 13 12 12 11 10 10 10 12 12 13 13 15
27 27 27 27 27 27 27 27 26 25 24 23 23 22 22 23 25 26 26 26 26 26 26 26 26 26 26 25 25 24 23 22 21 21 21 21 21 21 20 19 19 19 18 16 13 12 13 15 16 14 11 9 9 9 8 6 5 5 5 5 4 3 2 3 4 5 6 8 11 13 14 15 16 16 16 15 14 13 12 12 12 12 12 12 12 12 13
26 26 26 26 27 27 27 27 26 25 25 24 23 22 22 23 24 24 25 25 26 25 25 24 22 21 20 20 21 22 21 20 19 19 18 18 18 17 16 15 14 15 16 15 14 13 14 17 18 16 12 11 11 11 11 11 11 9 8 8 7 6 5 5 5 5 4 5 7 9 11 12 12 14 17 18 15 12 12 14 15 14 13 12 12 10 10
27 27 27 27 26 26 26 27 27 27 27 26 25 24 24 24 24 24 24 23 23 22 21 20 19 18 17 17 18 19 19 18 17 17 16 17 17 17 15 12 12 13 13 14 14 15 16 16 16 15 12 10 9 10 12 15 15 15 13 12 12 10 8 6 5 4 4 4 5 7 8 8 8 10 13 14 13 12 12 14 15 14 13 12 10 9 9
29 28 28 27 27 26 26 26 26 26 26 25 24 24 24 24 23 23 22 21 20 19 19 18 18 17 16 16 17 17 17 17 17 18 18 19 19 18 15 13 12 13 13 13 14 15 16 16 15 14 12 9 7 7 9 12 14 15 15 14 13 12 11 9 7 6 5 4 4 5 6 4 3 6 9 10 11 10 11 11 11 12 12 10 9 9 9
27 27 26 27 28 28 27 27 26 25 24 24 24 24 22 21 21 20 20 19 19 18 18 17 17 16 16 15 15 15 15 16 17 17 17 17 16 15 14 13 14 14 14 14 15 16 17 16 15 13 12 10 7 6 7 8 9 11 12 13 13 13 13 12 11 10 8 6 4 4 5 5 2 3 7 8 8 9 10 10 12 12 11 9 8 8 9
26 26 26 26 26 26 26 25 25 25 25 25 25 24 22 20 20 19 18 18 18 17 17 17 17 17 16 16 16 16 15 14 15 15 15 14 13 12 13 14 15 15 15 15 16 17 17 17 15 14 12 11 9 8 8 7 7 7 8 9 10 11 12 11 11 11 10 8 8 8 6 4 2 1 3 4 5 7 8 9 11 11 10 9 8 9 10
26 26 26 25 24 24 23 22 23 24 23 23 23 23 22 21 20 18 17 17 18 18 18 18 17 17 17 18 18 18 16 15 15 15 15 13 12 12 12 13 13 14 14 14 15 16 17 17 16 14 12 11 10 10 10 9 8 8 8 8 8 9 9 9 9 9 9 8 8 8 8 7 6 4 3 3 4 4 4 5 7 9 9 9 10 10 11
26 26 25 24 24 23 22 21 22 21 19 19 20 20 20 19 19 19 19 18 18 18 17 17 17 18 18 18 18 18 17 16 16 16 14 13 13 13 13 12 12 13 13 14 14 15 15 15 15 15 13 12 12 12 11 10 10 10 10 10 9 9 8 8 7 7 7 8 7 6 6 6 5 5 5 5 4 3 3 4 5 6 7 9 10 10 11
23 23 23 24 23 23 22 22 21 19 17 16 16 15 14 15 17 18 17 16 16 16 16 17 17 17 17 16 16 16 15 15 15 14 14 14 14 14 14 15 15 15 15 15 15 15 15 15 15 16 15 14 13 13 13 12 12 12 12 12 11 10 10 9 8 6 6 6 5 3 3 2 1 1 2 3 4 5 6 7 8 9 10 10 11 11 11
23 23 23 23 23 22 22 21 20 18 17 16 15 14 13 14 16 16 14 13 13 14 15 15 16 16 15 14 14 13 12 11 12 12 13 14 15 16 16 16 17 17 17 17 16 16 16 16 16 16 16 16 16 15 15 14 13 13 13 13 13 12 11 11 10 9 8 7 5 3 0 2 3 4 5 6 7 8 10 11 12 12 13 14 15 15 15
24 24 23 22 21 21 21 20 19 18 17 16 16 16 15 15 15 14 13 12 12 12 13 13 14 14 13 12 11 10 9 9 10 10 11 13 14 15 16 17 18 18 18 18 18 18 18 17 16 16 15 15 16 16 15 15 15 15 15 15 15 15 15 15 14 14 13 11 9 7 5 2 1 4 7 8 9 11 12 13 14 15 16 17 18 19 19
Wind_Direction
308 301 288 259 220 210 202 200 208 208 206 206 207 213 192 160 195 228 207 185 203 221 227 230 233 234 235 240 244 243 240 242 243 239 234 227 221 214 209 212 212 209 209 212 214 216 217 217 218 219 220 221 222 223 224 222 220 220 221 221 222 223 223 225 228 229 229 230 232 233 235 235 235 234 233 233 233 233 234 234 235 237 238 240 241 243 245
308 303 290 262 239 230 209 200 201 200 205 209 211 212 197 189 213 223 197 197 212 217 212 214 229 237 237 245 255 252 241 240 240 237 230 224 219 212 207 210 212 212 212 213 215 217 217 218 219 219 220 221 221 222 223 222 221 221 220 220 221 223 225 228 229 228 227 229 231 232 234 235 235 234 233 233 232 233 234 234 235 236 238 239 240 243 245
305 301 294 266 237 229 229 220 204 200 208 210 211 211 197 199 221 221 192 203 228 243 222 213 232 245 249 248 248 240 235 235 233 227 223 219 214 210 209 212 214 214 214 215 216 218 219 220 220 220 221 222 222 223 223 222 223 222 220 220 221 223 227 230 228 227 227 228 229 232 233 234 234 234 234 233 232 233 234 234 235 235 237 239 240 242 244
298 299 320 312 272 236 233 237 219 206 207 211 214 206 186 190 206 209 202 210 236 247 233 230 247 251 230 232 251 262 255 240 227 220 218 215 210 208 211 215 217 216 215 215 216 219 221 223 222 222 222 222 221 222 223 225 225 222 221 221 222 225 228 229 226 226 228 228 228 231 233 233 233 233 233 233 233 233 233 234 234 235 236 238 240 242 244
290 293 317 321 303 249 230 231 221 211 206 207 216 210 195 193 192 199 212 215 228 230 199 199 233 238 229 231 296 352 338 263 234 224 219 215 212 210 212 216 219 220 220 220 221 222 224 225 225 225 225 223 224 226 227 228 225 221 221 223 224 226 227 227 226 227 227 227 228 230 232 232 232 232 232 233 234 233 233 233 233 234 236 238 240 242 244
284 294 309 318 295 235 232 222 202 202 202 199 206 214 211 203 196 202 209 208 225 225 176 187 222 225 199 130 85 57 39 355 241 234 226 221 219 218 216 216 218 222 223 223 222 224 225 227 228 228 226 226 230 231 229 226 223 222 223 224 225 227 226 226 227 228 227 228 230 231 232 231 230 231 232 233 234 234 233 232 233 234 235 237 239 241 243
274 297 311 317 253 231 245 240 188 195 196 190 199 212 218 212 206 190 176 210 225 210 178 189 186 138 110 92 76 63 59 69 140 225 233 231 232 232 228 224 223 225 227 227 225 225 226 228 229 227 227 229 231 231 228 225 224 225 226 226 228 228 227 226 227 228 228 229 230 231 230 229 229 231 233 233 234 233 232 232 233 234 235 236 238 240 242
263 285 270 250 262 263 280 325 193 187 177 173 188 212 251 238 205 181 188 214 217 176 166 157 141 126 106 82 63 54 59 69 84 113 178 216 231 236 235 233 233 232 232 232 232 231 231 230 228 228 230 232 232 231 229 227 227 227 227 227 228 228 227 227 227 228 229 230 230 229 228 228 229 231 232 233 233 232 232 233 233 234 235 236 238 239 241
217 255 263 263 281 285 273 119 2 10 187 180 173 186 261 267 214 186 188 185 161 154 152 145 144 135 101 70 43 37 51 63 75 90 108 131 158 196 220 232 237 235 234 234 235 236 234 231 230 230 231 231 231 230 228 226 227 227 226 227 228 228 229 229 229 229 230 229 229 228 227 228 230 232 232 233 233 232 231 231 232 233 234 235 237 239 241
195 235 272 282 277 265 246 326 332 340 321 249 169 157 226 259 240 203 182 159 148 150 148 151 154 138 88 67 335 14 45 59 70 83 97 112 123 138 177 210 223 227 232 236 239 241 240 237 234 232 229 227 228 229 228 227 227 226 226 229 230 230 232 232 231 230 230 230 229 229 229 231 232 233 232 233 233 232 231 231 232 234 234 235 237 239 240
217 219 251 267 252 238 305 330 327 329 324 309 211 172 222 258 260 192 160 150 150 156 155 152 148 127 113 194 265 349 41 57 68 78 86 94 103 111 123 149 196 221 233 239 241 242 242 239 233 228 225 225 227 229 230 229 228 227 229 233 234 234 235 234 232 230 230 230 230 230 232 234 234 234 233 233 233 232 232 232 233 234 234 235 237 238 239
228 224 247 263 243 255 335 335 324 315 317 316 207 197 222 245 307 112 133 136 145 155 152 137 115 115 148 180 223 360 63 68 72 75 76 79 85 90 99 107 116 156 224 238 236 234 235 236 232 227 226 227 228 231 232 230 228 230 234 240 242 241 238 234 232 232 231 231 231 233 235 236 235 235 234 233 233 233 233 233 233 234 234 235 236 238 239
219 214 237 276 255 297 343 336 322 314 313 272 180 217 216 151 94 100 108 110 118 128 130 118 93 93 121 132 137 106 83 80 78 74 72 70 66 66 72 82 93 105 116 118 179 219 225 229 231 230 232 232 233 234 233 231 233 237 241 245 247 245 240 236 235 235 234 234 234 235 236 236 235 234 234 233 234 234 234 233 233 233 233 234 236 238 239
197 187 195 290 257 357 352 334 323 326 330 175 203 223 133 118 115 109 100 101 107 104 100 100 103 104 106 109 101 79 73 80 80 76 74 70 61 58 55 48 48 43 53 89 94 183 215 223 229 233 238 242 243 242 239 239 243 246 245 244 244 243 240 237 236 237 237 237 236 235 235 234 233 233 233 233 234 234 233 234 234 233 232 233 234 236 238
140 152 139 298 245 342 346 334 332 4 10 268 286 355 114 118 118 111 101 100 108 107 103 104 106 104 98 94 87 75 73 79 82 81 84 80 71 61 50 31 360 349 341 331 331 322 283 260 253 247 245 246 248 247 247 249 253 251 247 245 245 244 242 240 239 238 238 237 236 234 233 232 232 233 233 232 231 231 231 232 232 231 231 232 233 234 236
140 175 178 86 217 315 334 337 335 326 318 318 328 336 119 126 120 113 108 106 112 114 113 112 110 107 101 98 95 88 81 80 83 88 94 100 106 117 116 335 322 331 329 322 329 325 300 288 286 281 272 262 253 249 251 256 257 254 252 251 249 247 246 245 242 241 240 238 236 234 233 232 231 231 232 231 230 229 229 229 230 230 230 230 231 232 234
134 165 178 75 344 315 336 351 346 329 336 360 10 6 93 117 120 118 116 117 119 117 116 114 110 108 106 102 98 94 88 84 85 88 92 103 112 123 149 174 209 251 270 288 299 299 290 275 265 267 272 273 267 258 254 254 254 253 254 252 250 248 247 245 243 242 241 239 236 234 233 231 229 230 229 228 227 227 227 227 227 228 229 230 231 232 234
100 87 80 32 328 329 350 2 1 353 356 16 37 47 71 92 110 117 118 122 123 120 118 113 108 108 111 108 104 101 97 92 88 87 87 87 85 79 78 78 59 260 246 260 261 264 271 266 258 255 256 259 260 258 254 251 249 249 250 249 249 249 248 246 245 244 241 238 236 233 231 230 230 229 228 225 224 225 225 226 227 228 229 230 231 232 233
118 110 139 178 256 344 9 14 14 8 1 8 46 64 69 83 96 103 109 115 118 115 112 109 107 108 109 105 101 97 93 89 85 82 78 70 62 52 48 44 40 38 33 8 233 221 230 237 243 248 250 251 254 255 255 254 250 248 247 247 248 250 251 251 249 245 241 238 235 232 230 230 230 228 225 222 222 223 224 225 226 227 228 229 229 229 230
116 127 149 162 165 34 32 31 26 14 357 355 36 67 71 78 86 90 95 101 105 105 102 102 104 101 96 92 89 83 77 72 68 63 58 51 42 39 39 38 40 43 38 30 23 245 227 230 236 241 245 249 253 256 258 259 257 253 249 246 246 248 250 252 251 248 244 241 238 234 232 229 227 223 220 218 219 222 226 227 226 226 226 227 228 228 227
92 94 140 153 133 42 37 41 35 20 0 355 29 67 74 74 78 84 89 92 95 98 100 101 103 98 90 85 84 80 72 65 59 51 43 36 31 30 28 23 21 21 21 13 358 344 329 311 296 283 274 269 266 264 264 265 265 263 257 252 248 245 245 246 248 249 247 242 238 235 232 227 223 221 220 220 220 222 224 226 227 228 228 227 226 226 225
120 154 223 176 140 80 62 70 60 31 7 11 31 61 75 78 81 85 90 94 96 99 102 103 104 101 96 93 92 88 82 77 72 66 61 53 48 44 39 32 24 16 12 8 358 352 351 345 336 329 320 311 303 293 282 274 271 270 267 265 261 256 251 249 248 249 248 245 241 236 229 224 219 216 215 217 218 219 220 221 225 230 233 232 229 225 220
133 192 205 167 134 119 122 117 116 121 82 49 44 52 68 81 89 93 95 96 97 99 101 102 102 100 98 96 94 90 87 86 85 86 84 80 75 72 69 66 63 54 44 33 21 17 14 1 352 351 349 343 338 328 312 296 286 281 280 280 276 269 263 257 251 246 244 244 241 233 225 221 216 210 205 206 208 212 215 216 216 221 229 231 228 220 213
157 179 182 166 140 127 131 129 125 124 114 88 66 58 65 77 88 93 96 96 96 97 98 98 98 97 95 92 91 90 89 87 87 90 92 90 88 85 82 79 76 72 69 65 60 58 57 51 49 55 57 54 41 23 2 331 301 288 291 293 282 268 261 256 251 245 243 247 247 233 218 212 210 206 200 196 193 197 205 206 196 190 202 211 207 196 192
184 167 167 160 139 128 128 124 114 108 106 95 79 67 67 74 83 90 93 93 93 94 93 91 91 92 93 93 93 95 95 90 88 91 93 93 91 88 83 79 76 74 74 73 72 74 78 81 83 81 78 71 59 46 39 31 9 307 290 297 281 262 252 245 245 246 244 256 271 243 203 191 193 198 197 193 185 179 178 177 168 163 171 182 183 177 174
189 153 141 133 126 124 126 123 110 98 95 93 85 74 70 72 77 82 85 87 89 91 92 91 90 90 91 92 93 96 99 98 96 95 94 92 91 88 82 78 77 78 80 79 74 70 71 76 81 80 76 71 62 53 50 49 51 57 56 45 44 266 244 227 230 255 256 273 322 353 142 159 175 182 182 181 177 169 161 155 151 153 164 178 185 184 180
187 151 137 126 116 117 123 124 116 100 88 92 91 84 77 74 72 73 77 79 82 87 90 94 96 96 94 92 91 93 94 95 96 95 91 88 87 86 85 84 82 81 83 80 74 69 65 63 67 69 69 68 64 60 57 55 56 62 65 64 66 65 60 70 75 324 309 313 14 59 87 98 128 149 151 152 153 150 147 145 145 150 163 176 182 182 177
188 167 152 139 128 122 119 119 119 111 99 93 88 79 75 77 78 78 76 74 75 81 87 93 99 101 99 97 96 94 92 90 89 87 85 82 80 81 84 88 87 84 83 82 78 75 70 64 62 61 59 59 62 64 64 60 58 61 65 65 66 68 65 61 54 43 43 56 62 72 78 60 42 68 99 112 120 124 127 132 140 152 165 170 170 170 170
155 152 140 129 123 119 114 110 106 101 96 92 87 83 84 91 94 87 75 67 68 75 80 84 89 92 93 96 96 94 92 89 86 86 87 85 80 75 76 82 87 87 86 83 80 80 78 73 67 62 58 59 63 66 65 64 61 60 63 65 67 71 74 73 65 56 58 69 70 67 70 70 63 64 75 88 104 118 125 132 143 155 162 163 162 165 167
116 122 124 124 121 116 111 107 103 100 96 93 89 86 85 88 87 81 72 66 66 69 72 76 82 82 81 80 79 79 82 86 88 90 93 92 85 78 73 76 82 83 81 78 75 76 77 76 71 66 63 65 71 73 73 76 76 73 72 74 75 74 73 76 80 76 68 68 76 80 83 87 89 92 98 107 116 122 128 137 148 153 155 157 159 164 169
103 108 115 119 119 114 110 107 105 101 97 93 89 85 83 83 80 76 72 69 66 67 69 73 77 77 73 69 66 65 70 77 81 83 85 86 87 85 79 76 79 79 77 76 73 72 74 74 72 69 67 67 72 75 77 81 86 88 88 88 88 83 75 73 81 86 84 85 94 101 107 110 106 100 106 121 131 136 141 149 153 153 153 155 157 162 172
99 98 102 107 109 107 105 105 104 99 94 89 84 79 80 85 86 82 78 74 72 72 72 69 68 69 69 69 69 71 76 79 78 76 73 70 68 67 67 74 86 91 89 84 77 74 74 73 72 72 74 74 73 74 78 82 81 78 81 89 93 90 84 79 84 90 97 114 127 131 132 129 125 125 134 146 150 150 150 152 152 150 150 153 155 159 167
101 99 100 103 102 101 101 101 100 98 96 93 86 81 83 92 95 91 86 82 78 75 71 66 63 64 69 75 80 83 87 89 85 78 71 65 61 57 57 61 71 82 86 84 80 80 79 75 73 76 82 84 83 82 86 93 88 73 69 77 89 96 92 87 90 102 117 131 139 146 150 149 144 144 149 153 151 147 144 144 145 144 144 146 150 154 161
103 105 105 105 104 104 106 106 104 101 98 95 92 89 88 91 94 94 91 88 84 79 74 70 68 69 72 78 84 89 95 94 84 74 66 62 59 57 54 53 56 59 60 60 61 69 75 73 71 73 79 84 90 90 87 89 95 97 87 74 76 87 90 85 88 105 122 131 136 142 146 147 145 143 140 137 135 136 136 138 145 153 158 163 164 163 164
107 106 105 106 107 109 112 112 110 107 103 99 95 91 89 90 92 93 93 92 89 85 81 78 76 75 76 76 76 77 78 79 77 74 69 65 61 56 53 53 54 50 47 43 35 31 36 39 41 49 67 83 90 90 85 81 85 93 97 87 75 82 90 92 99 112 120 122 131 143 148 147 148 150 149 144 142 146 154 165 175 176 178 180 174 167 167
108 106 104 104 104 104 105 105 106 107 107 105 101 96 94 94 95 94 94 93 91 88 86 84 83 82 81 79 76 75 75 77 79 78 74 68 62 57 54 54 52 48 46 45 40 29 20 15 11 6 2 28 87 95 93 87 83 83 82 76 68 72 104 111 113 119 123 120 125 139 146 148 150 155 156 156 158 161 166 173 172 167 171 179 177 169 169
106 106 106 107 107 106 103 101 103 105 104 102 100 98 98 101 103 103 100 96 93 93 94 93 91 90 88 86 84 82 81 82 82 78 73 68 63 60 57 53 49 45 42 39 34 27 20 14 7 360 356 355 356 6 95 76 55 52 56 52 49 50 53 129 139 136 135 126 119 130 148 159 160 158 157 161 165 165 165 167 166 164 170 178 177 171 171
99 100 101 101 100 99 96 94 95 97 99 101 102 101 100 101 102 100 98 95 96 99 101 98 96 94 93 92 89 84 81 80 78 76 73 68 63 59 55 48 42 38 35 29 21 15 15 12 5 358 357 358 357 352 341 334 331 324 296 308 34 44 34 21 139 155 155 149 136 134 155 177 175 168 164 166 167 164 160 163 169 171 173 176 176 174 177
89 90 91 91 89 88 87 86 85 84 86 91 96 96 94 94 93 92 93 94 95 97 99 98 96 93 92 92 89 85 81 79 77 77 75 71 66 61 56 49 42 38 34 27 16 10 11 9 4 2 2 0 357 354 354 352 341 305 252 243 261 281 299 304 274 210 196 200 213 232 243 232 215 202 191 184 181 179 173 166 166 172 173 174 176 179 182
84 86 87 86 85 84 83 82 82 82 82 85 88 89 88 87 88 89 90 91 91 92 95 95 92 89 87 86 85 83 80 78 78 77 75 71 67 63 58 51 44 39 36 34 32 29 21 10 5 10 15 15 15 12 4 355 349 337 309 267 255 255 256 256 246 234 229 232 239 244 244 240 232 223 211 200 196 197 194 183 172 174 176 174 174 177 178
84 85 85 84 83 82 82 82 83 86 86 86 87 87 87 88 89 89 89 89 90 90 92 92 90 87 85 84 84 83 81 79 77 75 72 68 65 61 57 51 43 37 36 39 43 43 35 22 16 17 19 22 27 25 11 358 356 356 351 338 306 271 254 248 249 253 257 258 255 251 248 246 243 236 224 211 203 203 202 193 181 177 177 176 177 179 180
80 82 83 82 81 82 83 83 83 87 89 90 89 88 89 90 91 89 88 89 90 90 92 93 91 89 87 86 86 84 81 77 74 71 67 64 61 58 55 50 42 36 36 40 44 46 40 31 27 28 30 33 34 30 23 18 19 16 10 8 7 359 328 297 290 283 275 267 261 254 250 247 244 236 224 212 206 203 199 191 183 178 176 175 179 184 188
80 81 81 82 82 83 83 83 85 88 91 92 92 91 91 92 92 90 90 91 92 93 95 96 94 91 87 84 81 79 76 73 71 69 66 63 60 56 52 48 40 33 33 37 42 45 41 34 30 30 30 33 39 45 49 49 45 39 35 31 24 17 5 345 333 320 300 285 275 262 252 247 244 234 222 211 205 201 192 184 180 178 175 175 178 181 184
85 84 83 84 85 85 86 89 91 92 93 94 94 94 94 93 92 91 91 92 92 92 93 92 89 86 81 76 72 70 66 62 58 56 54 54 54 51 45 37 29 26 27 31 37 42 42 37 31 27 24 30 44 54 56 55 52 50 49 45 38 32 26 13 356 341 322 306 292 274 258 245 234 225 213 199 191 193 196 189 181 175 171 171 174 176 177
86 85 85 85 85 85 88 91 93 94 95 96 95 95 94 93 92 91 92 92 92 90 88 85 83 79 74 70 67 64 59 54 49 45 43 47 51 50 42 30 23 20 18 19 27 35 37 35 32 29 25 27 43 59 59 56 56 56 55 54 51 49 45 40 31 19 4 341 313 293 286 276 228 200 193 185 181 190 199 199 192 183 174 168 171 178 182
85 85 86 86 86 87 91 93 94 93 91 89 86 86 87 88 89 90 91 93 94 91 86 82 78 73 68 64 60 54 49 49 50 47 44 47 52 50 40 30 24 18 11 10 18 24 25 24 26 31 30 29 35 51 59 60 60 58 56 57 60 62 60 57 53 48 43 37 29 2 337 331 310 215 205 200 190 187 195 208 213 204 185 170 173 185 189
87 86 87 88 89 89 90 91 91 89 85 83 83 84 84 84 84 84 83 83 84 81 75 70 65 60 54 50 49 46 42 42 49 50 46 42 42 38 31 27 26 21 16 18 24 27 25 22 23 28 32 35 40 49 56 61 63 59 54 53 56 58 57 56 56 57 57 52 43 37 33 31 29 251 225 214 200 194 201 215 219 209 187 171 179 192 192
86 87 88 91 91 90 89 90 89 87 85 86 89 92 92 89 87 85 82 80 79 77 73 69 65 60 54 50 49 48 43 42 50 54 49 38 34 33 30 27 23 18 15 17 22 26 25 24 24 27 30 37 44 50 55 59 61 57 49 44 43 42 44 45 47 49 51 51 47 47 56 69 75 75 83 114 151 175 187 198 205 202 189 177 179 186 187
84 85 87 87 86 85 85 87 86 85 85 87 91 94 95 94 93 92 91 90 87 84 82 80 77 73 69 64 62 59 54 51 53 54 46 36 33 33 31 26 21 16 14 16 21 25 25 24 24 25 28 33 41 48 52 55 58 56 52 49 50 50 50 51 47 39 34 37 44 55 68 79 84 87 94 108 129 153 160 162 177 191 189 180 178 181 182
80 79 77 75 73 72 73 76 78 78 78 79 83 87 90 91 92 94 95 94 91 89 89 89 86 82 79 77 75 73 69 64 60 55 46 37 33 29 24 20 17 15 14 15 19 23 23 21 22 24 25 27 33 38 41 45 51 56 57 58 61 65 68 69 70 67 54 41 37 47 71 88 96 125 157 174 190 200 201 195 190 190 193 193 193 193 193
78 76 74 73 72 71 71 73 75 76 76 76 78 82 86 91 93 94 95 96 95 94 93 92 88 83 82 83 81 79 74 66 59 55 51 46 39 32 25 20 17 16 16 18 19 20 20 20 20 21 21 23 26 30 32 33 38 45 51 55 58 60 63 64 65 66 67 65 58 55 75 240 243 234 223 221 222 221 219 216 212 208 207 206 205 203 203
77 76 75 74 72 72 72 71 70 71 71 70 71 74 78 85 91 93 94 96 94 89 87 86 84 81 80 82 82 78 71 62 54 50 51 50 46 40 34 30 27 24 24 25 25 25 25 25 24 23 22 22 24 26 27 28 29 31 35 38 40 43 46 49 49 49 51 55 57 58 60 65 223 218 215 218 221 223 223 224 223 221 217 213 210 208 207